When you browse on this site, cookies collect data to enhance your experience and personalize the content and advertising you see.
Visit our Privacy Policy to learn more. By continuing to use the site, you agree to this use of cookies and data.
  • en France
  • Liste des pays
  • À 7 jours
  • Température de l'eau
  • Carte satellitaire
  • Carte météo
  • Widgets météo
  • user-avatar
    Se connecter

    Météo par heure à Qala i Naw

    Ce jour, 21 Novembre, Mercredi

    Heure Température Précipitation Vent Pression Humidité
    00:00 +12°C° 0 mm 1 m/s 682 mmHg 55%
    01:00 +12°C° 0 mm 1 m/s 681 mmHg 54%
    02:00 +12°C° 0.1 mm 1 m/s 681 mmHg 54%
    03:00 +12°C° 0.1 mm 1 m/s 681 mmHg 54%
    04:00 +12°C° 0 mm 1 m/s 681 mmHg 54%
    05:00 +12°C° 0.1 mm 1 m/s 680 mmHg 55%
    06:00 +12°C° 0.1 mm 2 m/s 680 mmHg 56%
    07:00 +12°C° 0.1 mm 2 m/s 680 mmHg 56%
    08:00 +13°C° 0.1 mm 2 m/s 680 mmHg 52%
    09:00 +15°C° 0.1 mm 2 m/s 680 mmHg 48%
    10:00 +17°C° 0 mm 2 m/s 680 mmHg 43%
    11:00 +17°C° 0.2 mm 3 m/s 680 mmHg 41%
    12:00 +18°C° 0.2 mm 4 m/s 680 mmHg 39%
    13:00 +19°C° 0.2 mm 5 m/s 679 mmHg 38%
    14:00 +17°C° 0.4 mm 5 m/s 679 mmHg 40%
    15:00 +18°C° 0.4 mm 4 m/s 679 mmHg 43%
    16:00 +17°C° 0.4 mm 4 m/s 679 mmHg 46%
    17:00 +15°C° 0.2 mm 4 m/s 680 mmHg 50%
    18:00 +14°C° 0.2 mm 3 m/s 680 mmHg 54%
    19:00 +14°C° 0.2 mm 3 m/s 680 mmHg 58%
    20:00 +14°C° 0.1 mm 2 m/s 681 mmHg 61%
    21:00 +13°C° 0.1 mm 2 m/s 681 mmHg 63%
    22:00 +13°C° 0.1 mm 2 m/s 681 mmHg 65%
    23:00 +13°C° 0.1 mm 2 m/s 681 mmHg 67%

    Demain, 22 Novembre, Jeudi

    Heure Température Précipitation Vent Pression Humidité
    00:00 +12°C° 0.1 mm 1 m/s 681 mmHg 68%
    01:00 +12°C° 0.1 mm 1 m/s 681 mmHg 69%
    02:00 +12°C° 0 mm 1 m/s 681 mmHg 69%
    03:00 +11°C° 0 mm 1 m/s 681 mmHg 69%
    04:00 +10°C° 0 mm 2 m/s 681 mmHg 69%
    05:00 +10°C° 0 mm 2 m/s 681 mmHg 68%
    06:00 +10°C° 0 mm 2 m/s 681 mmHg 66%
    07:00 +10°C° 0 mm 2 m/s 682 mmHg 65%
    08:00 +13°C° 0 mm 2 m/s 682 mmHg 58%
    09:00 +15°C° 0 mm 2 m/s 683 mmHg 51%
    10:00 +16°C° 0 mm 2 m/s 683 mmHg 44%
    11:00 +17°C° 0 mm 2 m/s 683 mmHg 40%
    12:00 +18°C° 0 mm 2 m/s 683 mmHg 36%
    13:00 +19°C° 0 mm 2 m/s 683 mmHg 33%
    14:00 +19°C° 0 mm 2 m/s 682 mmHg 34%
    15:00 +18°C° 0 mm 2 m/s 682 mmHg 35%
    16:00 +18°C° 0 mm 2 m/s 682 mmHg 37%
    17:00 +17°C° 0 mm 2 m/s 682 mmHg 39%
    18:00 +16°C° 0 mm 2 m/s 682 mmHg 41%
    19:00 +15°C° 0 mm 2 m/s 683 mmHg 43%
    20:00 +15°C° 0 mm 2 m/s 683 mmHg 43%
    21:00 +14°C° 0 mm 3 m/s 683 mmHg 43%
    22:00 +13°C° 0 mm 3 m/s 683 mmHg 43%
    23:00 +13°C° 0 mm 3 m/s 683 mmHg 44%

    Après-demain, 23 Novembre, Vendredi

    Heure Température Précipitation Vent Pression Humidité
    00:00 +13°C° 0 mm 3 m/s 683 mmHg 45%
    01:00 +13°C° 0 mm 3 m/s 683 mmHg 45%
    02:00 +12°C° 0 mm 3 m/s 683 mmHg 45%
    03:00 +12°C° 0 mm 4 m/s 682 mmHg 45%
    04:00 +12°C° 0 mm 4 m/s 682 mmHg 45%
    05:00 +12°C° 0 mm 4 m/s 683 mmHg 44%
    06:00 +12°C° 0 mm 4 m/s 683 mmHg 43%
    07:00 +13°C° 0 mm 4 m/s 683 mmHg 41%
    08:00 +14°C° 0 mm 4 m/s 684 mmHg 37%
    09:00 +17°C° 0 mm 4 m/s 684 mmHg 32%
    10:00 +19°C° 0 mm 4 m/s 685 mmHg 28%
    11:00 +20°C° 0 mm 5 m/s 685 mmHg 26%
    12:00 +21°C° 0 mm 5 m/s 684 mmHg 23%
    13:00 +23°C° 0 mm 5 m/s 684 mmHg 21%
    14:00 +22°C° 0 mm 4 m/s 684 mmHg 23%
    15:00 +21°C° 0 mm 3 m/s 684 mmHg 25%
    16:00 +21°C° 0 mm 3 m/s 683 mmHg 26%
    17:00 +20°C° 0 mm 3 m/s 683 mmHg 28%
    18:00 +18°C° 0 mm 2 m/s 683 mmHg 30%
    19:00 +17°C° 0 mm 2 m/s 684 mmHg 31%
    20:00 +17°C° 0 mm 2 m/s 684 mmHg 32%
    21:00 +17°C° 0 mm 2 m/s 684 mmHg 33%
    22:00 +16°C° 0 mm 2 m/s 684 mmHg 34%
    23:00 +16°C° 0 mm 3 m/s 683 mmHg 34%

    24 Novembre, Samedi

    Heure Température Précipitation Vent Pression Humidité
    00:00 +16°C° 0 mm 3 m/s 683 mmHg 34%
    01:00 +16°C° 0 mm 3 m/s 683 mmHg 35%
    02:00 +16°C° 0 mm 3 m/s 683 mmHg 35%
    03:00 +16°C° 0 mm 3 m/s 683 mmHg 35%
    04:00 +16°C° 0 mm 3 m/s 683 mmHg 35%
    05:00 +14°C° 0 mm 3 m/s 683 mmHg 36%
    06:00 +14°C° 0 mm 3 m/s 684 mmHg 36%
    07:00 +15°C° 0 mm 2 m/s 684 mmHg 36%
    08:00 +14°C° 0 mm 3 m/s 685 mmHg 38%
    09:00 +15°C° 0 mm 4 m/s 686 mmHg 40%
    10:00 +15°C° 0 mm 5 m/s 686 mmHg 43%
    11:00 +14°C° 0 mm 4 m/s 686 mmHg 46%
    12:00 +14°C° 0 mm 4 m/s 686 mmHg 49%
    13:00 +13°C° 0 mm 4 m/s 686 mmHg 53%
    14:00 +12°C° 0 mm 4 m/s 687 mmHg 58%
    15:00 +12°C° 0 mm 4 m/s 687 mmHg 63%
    16:00 +11°C° 0 mm 4 m/s 687 mmHg 68%
    17:00 +10°C° 0 mm 4 m/s 688 mmHg 72%
    18:00 +10°C° 0 mm 4 m/s 688 mmHg 76%
    19:00 +10°C° 0 mm 3 m/s 689 mmHg 80%
    20:00 +9°C° 0 mm 3 m/s 689 mmHg 82%
    21:00 +9°C° 0 mm 3 m/s 689 mmHg 83%
    22:00 +9°C° 0 mm 3 m/s 689 mmHg 85%
    23:00 +9°C° 0 mm 3 m/s 689 mmHg 85%

    25 Novembre, Dimanche

    Heure Température Précipitation Vent Pression Humidité
    00:00 +9°C° 0 mm 3 m/s 688 mmHg 86%
    01:00 +8°C° 0 mm 3 m/s 688 mmHg 86%
    02:00 +8°C° 0 mm 2 m/s 688 mmHg 86%
    03:00 +8°C° 0 mm 2 m/s 687 mmHg 86%
    04:00 +8°C° 0 mm 2 m/s 687 mmHg 86%
    05:00 +8°C° 0 mm 2 m/s 687 mmHg 86%
    06:00 +8°C° 0 mm 2 m/s 687 mmHg 86%
    07:00 +7°C° 0 mm 2 m/s 687 mmHg 86%
    08:00 +8°C° 0 mm 2 m/s 687 mmHg 79%
    09:00 +10°C° 0 mm 2 m/s 687 mmHg 72%
    10:00 +12°C° 0 mm 2 m/s 687 mmHg 65%
    11:00 +13°C° 0 mm 2 m/s 686 mmHg 61%
    12:00 +13°C° 0 mm 3 m/s 685 mmHg 56%
    13:00 +14°C° 0 mm 3 m/s 685 mmHg 51%
    14:00 +14°C° 0 mm 3 m/s 684 mmHg 52%
    15:00 +14°C° 0 mm 3 m/s 684 mmHg 52%
    16:00 +14°C° 0 mm 2 m/s 683 mmHg 52%
    17:00 +14°C° 0 mm 2 m/s 683 mmHg 54%
    18:00 +13°C° 0 mm 1 m/s 683 mmHg 56%
    19:00 +13°C° 0 mm 1 m/s 684 mmHg 57%
    20:00 +13°C° 0 mm 1 m/s 683 mmHg 56%
    21:00 +13°C° 0 mm 1 m/s 683 mmHg 55%
    22:00 +13°C° 0 mm 1 m/s 683 mmHg 53%
    23:00 +13°C° 0 mm 1 m/s 682 mmHg 52%

    26 Novembre, Lundi

    Heure Température Précipitation Vent Pression Humidité
    00:00 +13°C° 0 mm 1 m/s 682 mmHg 51%
    01:00 +13°C° 0 mm 1 m/s 681 mmHg 50%
    02:00 +13°C° 0 mm 1 m/s 681 mmHg 50%
    03:00 +13°C° 0 mm 1 m/s 680 mmHg 49%
    04:00 +12°C° 0 mm 1 m/s 680 mmHg 49%
    05:00 +13°C° 0 mm 2 m/s 680 mmHg 48%
    06:00 +13°C° 0 mm 2 m/s 680 mmHg 47%
    07:00 +13°C° 0 mm 2 m/s 680 mmHg 46%
    08:00 +15°C° 0 mm 2 m/s 680 mmHg 41%
    09:00 +17°C° 0 mm 2 m/s 680 mmHg 36%
    10:00 +19°C° 0 mm 2 m/s 680 mmHg 31%
    11:00 +19°C° 0.1 mm 3 m/s 680 mmHg 33%
    12:00 +19°C° 0.1 mm 4 m/s 679 mmHg 35%
    13:00 +19°C° 0.1 mm 5 m/s 679 mmHg 37%
    14:00 +18°C° 0.2 mm 4 m/s 679 mmHg 40%
    15:00 +18°C° 0.2 mm 4 m/s 679 mmHg 43%
    16:00 +17°C° 0.2 mm 3 m/s 679 mmHg 46%
    17:00 +17°C° 0.5 mm 3 m/s 679 mmHg 50%
    18:00 +16°C° 0.5 mm 2 m/s 679 mmHg 55%
    19:00 +15°C° 0.5 mm 2 m/s 680 mmHg 60%
    20:00 +15°C° 0.4 mm 2 m/s 680 mmHg 62%
    21:00 +14°C° 0.4 mm 2 m/s 680 mmHg 65%
    22:00 +14°C° 0.4 mm 2 m/s 680 mmHg 67%
    23:00 +13°C° 0.2 mm 2 m/s 680 mmHg 70%
    Voir plus